Wind_Speed
69 69 69 69 69 68 68 68 68 69 69 69 70 71 72 72 72 72 72 72 72 72 73 73 74 74 75 76 77 78 78 79 79 80 80 80 80 80 81 82 82 82 83 84 84 85 85 86 87 88 90 91 92 93 93 94 95 95 95 95 96 97 98 99 99 97 95 94 93 91 90 89 88 87 86 85 85 85 86 85 85 84 83 82 82
70 70 70 70 69 69 69 69 69 69 70 70 71 71 71 71 70 70 69 69 69 70 70 70 71 71 72 73 74 76 77 78 79 80 80 81 81 81 82 82 82 82 83 83 84 85 85 85 85 86 87 88 88 90 91 92 94 94 95 95 96 96 97 99 100 99 97 96 95 94 93 92 91 89 89 88 87 87 87 87 87 86 85 84 84
70 70 70 70 70 70 70 70 70 70 70 70 70 69 68 67 67 66 66 66 65 66 65 65 66 66 67 68 69 70 71 73 75 77 78 80 81 82 83 83 83 83 84 84 84 85 85 85 85 86 86 86 86 87 89 90 92 93 94 95 96 96 97 98 99 99 99 98 97 96 95 95 93 92 92 91 90 90 89 88 88 88 87 86 85
71 70 70 70 70 70 71 70 70 70 69 68 66 65 64 63 62 62 61 60 60 60 60 60 61 61 62 63 63 64 66 67 69 70 72 75 77 79 81 82 83 84 85 85 85 86 86 86 86 87 87 87 86 87 87 88 89 91 92 93 95 95 96 98 98 99 99 99 98 97 97 97 95 94 94 93 92 92 91 90 90 90 89 89 88
71 70 70 70 70 70 70 70 69 68 66 64 62 60 59 58 58 57 57 56 56 56 57 56 57 57 58 59 59 60 61 62 64 65 67 68 70 72 74 77 79 81 83 84 85 86 87 87 87 88 88 88 88 88 88 89 89 90 90 91 93 94 95 97 98 99 99 99 98 98 99 99 97 96 95 95 95 94 93 92 92 91 91 91 90
72 71 70 70 69 69 69 68 67 64 62 60 58 56 55 54 54 54 54 54 53 53 53 53 53 53 53 54 55 56 57 58 60 61 63 64 65 66 68 70 71 74 76 78 81 83 85 86 87 88 89 89 90 90 90 91 91 91 90 91 92 93 94 95 96 97 98 98 98 98 99 100 99 97 97 97 97 96 95 95 94 94 93 92 92
72 71 70 70 69 69 68 66 64 61 58 56 54 53 52 51 51 52 52 51 51 50 49 49 49 49 49 50 51 52 53 55 56 58 59 61 62 64 65 66 67 68 69 71 73 75 78 80 83 85 88 90 91 91 92 92 92 92 92 92 92 92 93 93 94 95 96 96 96 97 97 99 100 99 98 98 98 97 97 97 96 96 96 95 94
71 71 70 69 69 68 66 64 61 57 54 52 51 50 50 50 50 50 49 48 48 47 46 46 46 46 47 47 48 49 50 52 54 55 57 59 60 62 63 64 65 66 66 67 68 70 71 73 76 79 82 85 88 90 92 93 94 94 93 94 94 94 93 93 93 94 94 94 94 94 95 97 98 98 99 99 100 99 99 100 99 98 98 97 96
71 70 69 69 68 66 64 61 58 55 52 50 48 48 48 49 49 48 47 46 45 45 44 44 44 44 44 45 46 47 49 50 52 54 55 57 59 61 62 63 64 65 65 66 66 67 68 70 72 74 77 80 82 85 88 91 93 94 94 95 95 95 95 94 94 93 93 93 92 92 94 95 96 97 98 99 100 100 101 102 101 99 99 99 98
71 69 68 68 67 65 62 59 55 52 49 48 47 47 47 48 47 47 46 45 44 44 44 44 44 44 44 45 46 47 48 50 52 53 55 56 58 59 60 62 63 63 64 65 65 66 67 68 69 71 74 76 79 81 83 86 89 91 93 94 95 96 96 96 95 94 94 93 92 92 93 92 92 94 96 98 100 101 102 103 102 101 101 101 99
70 69 68 66 65 63 59 56 52 49 47 46 45 46 46 46 46 45 44 44 44 44 44 44 44 45 45 45 46 47 49 50 52 52 54 56 57 59 59 60 61 62 63 63 64 64 66 67 68 70 71 74 76 78 80 82 84 87 89 91 94 95 96 96 96 95 95 94 93 93 93 91 90 91 93 95 97 100 101 102 103 103 103 103 101
70 68 67 65 63 61 57 53 50 47 45 44 44 45 45 45 45 44 43 43 43 43 44 44 45 45 46 46 47 47 49 51 52 53 54 55 57 58 59 59 59 60 61 61 62 63 65 66 67 68 69 71 73 75 77 79 81 83 85 87 90 92 94 95 96 96 96 96 95 94 93 92 90 90 91 92 94 96 98 100 102 103 104 105 103
69 67 66 64 62 59 55 51 48 45 43 42 43 44 44 44 43 43 42 42 42 42 43 43 44 45 45 45 46 47 49 51 52 54 54 55 57 59 59 59 59 59 59 60 61 62 63 64 65 66 67 69 71 72 74 75 77 80 82 84 86 88 90 92 94 95 96 96 96 95 93 92 90 89 89 91 92 93 94 96 99 101 103 104 104
68 66 64 62 60 57 53 49 46 43 42 41 41 43 43 43 42 42 41 41 41 41 42 43 43 44 45 45 46 47 49 51 52 54 55 56 57 59 60 60 60 59 59 59 60 61 62 63 63 64 65 66 68 69 70 72 74 76 78 80 82 84 86 88 89 91 94 95 96 95 93 92 91 89 89 91 92 92 93 94 96 98 99 101 103
67 65 63 61 59 55 51 47 45 42 40 40 40 41 42 42 42 42 41 41 41 41 42 42 43 44 45 45 46 46 48 51 52 54 55 56 58 59 59 60 59 58 58 58 58 59 59 61 61 62 62 63 64 65 67 69 71 72 74 76 78 80 82 84 85 87 89 92 94 94 93 92 91 90 90 92 92 92 92 93 94 95 96 97 99
66 64 62 60 57 53 50 46 43 41 39 39 39 40 40 40 41 41 41 40 41 41 42 42 43 43 44 45 45 46 48 50 52 53 55 56 58 59 59 59 59 57 56 55 55 56 56 57 58 58 59 59 59 61 63 66 68 69 71 72 74 76 78 80 82 83 85 87 89 91 92 92 92 92 91 92 92 92 92 93 94 94 95 94 94
65 63 61 58 55 51 48 45 42 40 38 38 38 39 39 39 40 40 40 40 40 41 42 42 43 43 44 45 45 45 47 50 52 53 55 57 58 59 59 59 57 54 53 52 52 52 52 53 54 54 54 53 54 56 60 63 66 67 68 69 70 72 74 76 78 80 82 83 85 87 89 91 92 93 92 92 93 93 93 94 93 93 94 94 92
65 63 60 56 53 49 47 44 41 39 38 37 37 37 38 38 38 39 39 40 40 41 42 42 43 43 44 45 46 46 47 50 52 53 55 56 58 59 59 57 54 51 49 48 48 49 49 49 49 49 48 48 50 53 56 59 61 63 64 66 67 69 70 72 74 77 79 81 82 83 85 87 89 91 92 92 92 93 94 94 92 92 93 93 91
64 61 58 54 51 47 45 42 40 39 37 36 36 36 37 37 38 38 39 39 40 41 42 43 43 44 45 45 47 48 48 50 52 53 55 56 58 59 58 55 51 48 47 46 45 45 45 44 44 44 45 46 48 50 52 54 57 60 61 63 66 67 67 69 71 73 75 77 79 81 82 83 84 86 87 89 90 92 93 93 92 92 92 91 89
63 60 56 52 48 45 43 41 39 38 36 36 35 36 36 37 37 38 39 39 40 41 43 44 44 44 46 46 47 49 49 50 52 54 55 56 58 59 58 54 50 47 45 44 42 40 40 40 41 42 43 45 46 48 50 51 53 56 59 62 63 62 63 65 67 69 71 73 75 77 79 79 80 80 82 84 87 89 91 92 92 92 91 90 88
62 58 54 50 47 44 42 40 39 37 36 35 35 35 36 37 37 38 39 40 40 41 43 45 45 46 47 47 48 49 50 51 52 54 55 56 57 59 57 54 50 48 45 43 39 37 36 38 39 40 41 42 44 47 47 48 51 54 57 57 57 57 59 62 64 66 67 69 71 72 74 74 75 77 78 79 81 84 87 89 90 90 90 90 89
61 57 52 48 45 42 41 39 38 37 36 35 34 35 36 37 38 38 39 40 41 42 43 45 46 47 48 49 49 50 51 52 52 53 54 55 57 58 57 54 51 49 46 43 39 36 35 35 35 36 38 40 42 44 46 47 50 51 51 51 52 54 56 57 57 57 59 61 62 64 66 68 69 71 72 74 76 78 81 84 85 87 88 89 89
60 55 51 47 43 41 39 38 37 37 36 35 35 35 36 37 38 39 40 41 41 42 43 45 47 48 49 50 50 50 51 52 53 53 54 54 55 57 56 54 52 50 48 45 41 37 34 33 32 33 35 36 38 40 43 45 46 46 46 47 48 49 50 49 49 50 51 52 54 56 57 59 62 64 65 67 69 71 74 77 79 82 84 86 87
58 54 50 46 42 39 37 37 37 36 35 35 35 35 36 37 38 39 40 41 42 42 44 46 47 49 49 50 50 51 51 51 52 53 53 53 54 55 55 54 52 51 49 47 43 39 34 32 31 31 32 33 34 36 39 41 42 42 43 44 44 44 45 45 46 47 47 48 49 51 52 54 56 58 59 60 62 65 68 71 73 76 78 80 82
57 53 49 45 41 38 36 36 36 36 35 35 35 35 36 37 38 39 41 42 42 43 44 46 48 49 50 50 50 50 50 51 51 53 53 53 53 54 54 53 51 50 49 47 44 40 35 32 30 29 30 31 32 34 35 37 39 40 40 41 42 42 42 43 43 44 44 44 45 46 47 49 51 53 54 56 57 60 63 65 67 69 72 74 77
55 51 47 43 40 37 36 36 36 35 35 35 35 35 36 37 38 39 41 42 42 44 45 46 47 49 50 50 50 49 50 50 51 51 52 52 52 53 53 53 52 50 49 48 45 40 35 31 30 29 29 30 31 32 33 34 36 37 38 39 40 40 41 41 41 41 40 40 40 41 42 44 46 48 50 51 53 55 57 59 61 63 66 68 70
53 50 46 41 38 36 36 36 36 35 34 34 35 35 36 37 38 39 41 42 42 44 45 46 47 49 50 51 51 50 49 50 50 51 51 50 50 51 52 52 52 51 50 48 45 40 35 32 31 29 28 28 29 30 31 32 33 35 36 38 39 39 39 39 39 38 37 37 37 38 39 41 43 44 46 47 49 50 52 55 57 58 60 62 64
52 48 44 40 37 35 35 35 35 35 34 34 34 35 36 37 38 39 41 42 42 43 44 46 47 49 51 52 51 50 49 49 50 50 50 49 48 49 50 50 51 50 49 48 45 40 36 35 33 30 27 25 25 27 29 30 31 32 35 37 38 38 38 37 36 36 35 36 36 37 38 39 40 41 43 44 45 46 48 51 52 53 55 57 59
50 46 43 39 36 35 35 35 35 34 34 33 33 34 35 36 37 38 40 42 43 44 44 46 47 49 51 52 52 50 48 47 48 48 48 48 47 47 48 49 49 48 47 46 43 38 36 36 35 32 29 25 23 24 26 27 29 31 33 35 36 37 36 35 34 34 35 35 35 36 36 37 38 39 40 41 42 43 45 47 48 49 51 53 54
48 45 41 38 36 35 35 35 35 34 33 32 32 33 34 36 38 39 40 41 43 44 45 46 48 50 52 53 53 51 48 46 46 46 47 47 47 48 48 49 49 48 46 44 40 37 35 34 33 32 30 26 23 22 23 24 26 28 30 33 34 35 34 33 33 34 34 35 35 35 35 35 36 37 38 38 38 40 42 43 44 45 47 49 50
46 43 40 38 36 35 35 35 35 34 33 32 32 32 33 35 37 40 41 41 43 45 47 48 51 53 55 55 55 54 51 48 47 46 46 46 46 47 48 49 50 49 46 43 40 37 34 33 32 31 29 27 24 22 22 22 24 26 28 31 32 33 33 32 32 33 33 33 33 33 33 33 34 35 35 35 35 37 38 39 40 42 43 45 45
45 42 40 37 36 35 35 34 34 33 32 32 32 32 32 33 35 38 40 42 44 45 47 49 52 55 57 58 57 55 53 50 47 46 45 44 44 45 46 48 49 48 46 44 41 38 34 31 30 30 28 27 25 23 22 22 23 24 26 28 30 31 31 31 31 31 31 31 31 31 31 31 32 32 32 32 33 34 35 37 38 39 40 40 41
45 42 39 37 36 35 34 33 33 32 31 31 31 32 32 33 34 35 38 40 43 46 49 51 53 55 57 58 58 57 54 51 49 46 45 44 43 44 45 46 47 47 46 44 42 39 35 31 30 29 27 26 25 23 23 23 23 23 25 26 28 29 29 29 28 28 29 29 29 29 29 29 30 30 30 31 31 33 34 35 36 37 37 37 37
44 41 39 37 35 35 34 33 32 31 31 31 31 31 32 34 34 35 36 38 40 44 48 52 54 55 56 57 57 57 55 53 51 48 46 45 44 44 44 46 46 46 46 44 41 39 35 32 29 28 27 26 24 23 23 23 23 23 23 24 25 27 27 26 26 27 27 27 28 28 29 28 29 29 29 29 30 31 32 33 34 35 36 36 35
43 41 39 37 36 35 34 33 32 31 31 31 31 32 33 34 35 36 37 38 39 42 46 50 53 55 56 56 56 55 53 52 50 49 47 46 45 44 44 45 45 45 45 44 41 38 35 32 29 27 26 26 25 23 23 23 23 23 22 23 24 25 25 25 25 25 26 27 27 28 28 28 28 28 28 28 29 30 31 32 33 33 33 34 34
43 40 39 37 36 35 34 33 32 31 31 31 31 32 33 34 36 37 38 39 40 42 45 49 52 54 55 56 55 53 52 50 49 48 46 45 45 44 44 44 44 44 44 44 42 39 36 32 29 27 26 25 25 24 23 23 23 23 22 22 23 23 23 23 24 24 25 26 27 27 28 27 27 27 27 27 27 28 29 30 30 31 31 31 32
42 40 38 37 36 35 34 33 32 32 32 32 32 33 34 35 36 37 39 40 42 44 47 49 51 53 54 55 55 53 51 49 49 47 46 45 45 45 44 44 43 43 43 42 42 40 37 34 30 27 25 24 24 24 24 23 23 22 21 21 22 22 22 22 23 23 24 25 26 26 26 26 25 25 25 26 26 27 28 29 29 30 30 30 30
42 40 38 36 35 35 34 33 33 33 33 33 34 34 35 36 37 38 40 41 43 46 48 50 51 52 53 53 53 52 50 49 48 48 47 46 45 45 45 45 44 43 41 41 40 39 37 35 31 28 25 23 23 23 23 23 22 22 21 21 21 22 22 22 22 23 23 24 25 25 25 25 24 24 24 25 26 26 28 28 29 29 29 30 30
42 39 38 36 35 34 34 33 33 33 33 34 35 35 36 37 38 39 41 42 45 47 48 50 52 53 53 52 51 50 49 48 48 48 47 46 45 45 45 46 45 43 42 40 39 38 37 34 31 29 27 24 22 22 23 23 22 21 21 21 21 21 21 21 22 22 23 24 25 25 25 24 23 23 24 25 26 27 28 29 29 29 29 30 30
41 39 37 36 35 34 34 33 33 34 34 34 35 36 37 37 39 40 42 44 46 48 49 51 52 53 53 52 51 49 47 47 47 47 47 46 46 45 45 46 45 45 43 41 39 38 37 34 31 29 27 26 24 22 22 23 23 21 21 21 21 21 21 21 21 22 23 24 24 25 24 24 23 24 24 26 27 28 29 29 29 30 30 30 30
41 38 37 36 35 34 34 34 34 34 35 35 36 37 38 38 40 41 43 45 47 48 50 52 53 53 53 52 50 49 47 47 47 47 46 46 46 45 45 45 45 45 44 42 40 39 37 35 31 28 27 26 25 23 22 22 23 22 21 21 21 21 21 21 22 22 23 24 24 25 25 24 24 24 25 26 27 28 29 30 30 30 30 30 31
40 38 36 35 34 34 34 34 34 35 36 36 37 38 39 40 41 42 44 46 48 50 51 52 53 53 52 52 50 49 48 48 47 47 47 47 46 45 45 45 45 45 44 42 41 39 38 36 32 28 26 26 26 25 23 22 22 22 21 21 21 21 21 21 22 23 23 24 25 25 25 25 25 25 25 26 28 29 30 30 30 31 31 31 31
40 38 36 35 34 34 34 34 35 36 36 37 38 39 40 41 42 44 45 47 49 51 52 53 53 53 52 51 50 50 49 48 48 48 47 47 47 46 46 45 45 45 44 43 41 40 38 36 33 29 25 25 26 26 24 23 22 22 22 21 21 21 21 21 22 23 23 24 26 26 26 26 26 26 26 27 28 29 30 30 30 30 31 31 30
40 38 36 35 34 34 34 35 35 36 37 38 39 40 41 42 44 45 47 49 50 52 53 53 53 52 51 51 50 50 50 49 49 49 48 48 48 47 47 46 46 45 45 44 42 40 39 37 34 30 26 24 26 26 25 24 23 23 22 21 21 21 21 22 22 23 24 25 26 27 27 27 26 26 26 26 27 28 29 29 30 30 31 30 30
40 38 36 35 34 34 34 35 36 36 37 38 40 41 42 44 45 47 49 50 52 53 53 53 53 52 51 51 51 50 50 50 50 49 49 48 48 48 48 47 47 46 46 45 44 41 39 37 34 31 26 24 25 26 26 25 23 23 23 22 22 21 21 22 23 24 25 26 27 28 28 27 27 26 25 25 26 27 28 30 31 31 31 30 30
40 37 36 35 34 34 35 35 36 37 38 39 40 41 43 45 46 48 50 52 53 54 54 53 53 52 52 51 51 51 51 51 51 50 50 49 49 49 49 49 48 47 47 46 45 42 39 36 33 30 26 23 24 26 27 25 24 24 23 23 22 22 21 22 23 25 26 27 28 29 29 28 27 26 25 25 26 28 29 31 32 32 31 30 30
39 37 36 35 34 34 35 36 37 38 39 40 41 42 44 45 47 49 51 53 53 54 54 53 53 52 52 52 53 53 52 52 52 51 51 51 50 50 50 50 50 49 48 47 45 43 39 35 32 29 26 24 23 26 27 26 25 24 24 23 23 22 22 23 25 26 28 29 29 30 29 28 27 26 26 26 27 29 31 32 32 32 31 31 31
39 37 35 34 34 34 35 36 37 39 40 41 42 44 45 47 48 50 52 53 54 54 53 53 53 53 53 53 54 54 53 53 53 52 52 52 51 51 51 52 52 51 50 47 45 41 37 33 30 27 25 23 23 26 27 27 26 25 25 24 23 22 22 24 26 28 29 30 30 30 30 29 28 27 27 27 29 30 32 32 32 32 32 32 33
38 36 35 34 34 35 35 37 38 39 41 42 43 45 46 48 50 51 52 53 53 53 53 53 54 54 55 55 55 55 54 54 54 54 53 53 52 53 53 53 53 52 49 46 42 38 34 30 27 25 24 23 24 26 27 27 26 26 25 25 24 23 23 25 27 29 30 31 31 31 31 30 30 29 28 29 31 32 32 32 33 33 33 34 34
37 35 34 34 34 35 36 37 39 40 42 43 44 45 47 49 51 52 53 53 53 53 54 54 55 56 56 56 56 56 56 55 55 55 55 54 54 55 55 55 53 50 46 42 38 34 30 27 25 24 23 23 24 26 28 28 27 26 26 26 25 24 24 26 28 30 31 31 32 31 31 31 31 31 30 31 32 32 33 33 33 34 35 35 35
36 34 34 34 34 35 36 38 40 41 42 44 45 47 48 50 51 52 53 53 54 54 55 56 57 58 58 58 58 57 57 57 56 56 56 56 56 56 55 53 50 46 41 36 33 30 27 24 23 22 22 23 24 27 29 29 28 27 27 26 25 24 25 27 29 30 31 32 32 32 32 32 33 32 32 32 33 33 33 34 34 35 36 36 36
Wind_Direction
311 309 307 306 305 303 302 301 299 298 298 297 296 294 293 292 291 290 288 287 285 284 282 281 280 278 277 275 274 273 272 271 271 270 269 268 267 267 266 265 264 264 263 262 262 262 261 261 261 260 260 260 259 259 259 259 259 259 259 259 259 259 259 258 257 253 252 253 253 252 252 251 251 250 249 249 249 249 248 248 247 247 246 245 243
312 310 308 306 305 304 303 301 301 300 299 298 297 296 295 294 292 291 290 288 287 286 284 283 281 280 278 277 275 274 272 271 271 270 269 268 268 267 266 265 264 264 263 262 262 261 261 260 260 259 259 259 258 258 258 257 257 257 258 257 257 257 257 258 257 255 253 253 253 253 252 252 251 251 250 249 249 249 248 248 248 247 246 245 244
312 310 308 306 305 304 303 303 302 301 301 299 298 297 296 295 294 293 291 290 288 287 286 284 283 282 280 279 278 276 274 273 272 270 269 269 268 267 266 266 265 264 263 262 262 261 261 260 260 259 258 258 258 257 257 256 256 255 255 255 255 255 256 256 256 256 254 253 253 253 253 253 252 251 251 250 249 249 249 248 248 247 247 246 245
312 310 309 307 306 305 305 304 304 303 302 301 300 298 297 296 295 293 292 291 290 289 287 286 285 284 282 281 280 279 277 276 274 273 271 270 269 268 267 266 265 264 264 263 262 261 261 260 259 259 258 258 257 257 256 255 255 254 254 254 254 253 253 254 254 255 254 253 252 252 252 252 252 251 251 250 250 249 249 248 248 248 247 246 245
312 311 310 309 308 307 306 306 305 305 304 302 301 299 298 297 295 294 293 293 292 291 290 288 287 286 284 283 282 280 279 278 277 276 274 273 271 270 269 268 267 266 265 264 263 262 261 260 260 259 258 258 257 256 256 255 255 254 254 253 253 252 252 252 252 252 252 252 251 251 251 251 251 251 250 250 250 249 249 248 248 248 247 247 246
313 313 312 311 309 308 308 307 307 306 305 303 302 300 299 298 297 296 295 295 294 293 292 290 289 288 286 285 284 282 281 280 279 278 277 276 274 273 272 270 269 268 267 266 264 263 262 261 260 260 259 258 257 256 256 255 255 254 254 253 252 252 251 251 251 251 251 250 250 249 250 250 250 249 249 249 249 249 249 248 248 247 247 247 246
314 314 313 312 310 310 309 309 308 307 305 303 302 300 299 299 299 299 298 297 296 295 294 293 292 290 289 288 287 286 284 283 281 280 279 277 276 275 274 273 272 271 270 268 267 266 265 264 262 261 260 259 258 257 256 255 254 254 253 253 252 252 251 251 250 250 250 249 248 248 247 247 247 247 247 247 248 247 247 247 247 247 247 246 245
315 315 314 312 311 311 310 310 309 307 305 303 302 301 300 301 301 301 300 299 298 297 296 295 294 294 293 292 291 290 289 287 285 284 282 280 279 277 275 274 273 272 271 271 270 269 268 266 265 263 262 260 259 258 256 255 255 254 253 253 252 252 251 251 250 250 249 249 248 247 246 245 245 245 244 245 245 245 245 246 245 245 246 246 245
316 315 314 313 312 312 311 310 309 307 305 303 303 302 303 304 304 303 302 301 300 299 298 297 297 296 296 295 295 294 293 292 290 289 287 284 282 280 278 276 275 273 273 272 271 271 270 268 267 266 264 262 261 259 258 256 255 254 253 252 252 251 251 250 250 249 249 248 247 247 246 244 244 243 242 242 242 242 243 244 244 244 244 244 244
316 315 315 314 313 312 312 311 309 306 304 303 303 303 304 305 306 305 305 303 302 301 300 299 298 298 297 297 297 297 296 295 294 293 291 289 286 284 282 280 278 276 274 273 272 272 271 270 269 267 265 264 262 260 259 257 256 255 254 253 252 251 251 250 249 249 248 248 247 246 246 245 244 243 242 241 241 241 241 241 242 242 242 242 242
317 316 316 315 314 313 312 311 308 305 303 302 303 304 306 307 308 308 307 305 304 302 301 300 299 299 298 298 297 297 297 296 295 295 294 292 291 289 286 283 281 279 276 275 273 272 271 271 270 269 267 265 263 261 260 258 257 256 255 253 252 251 251 250 249 248 248 247 246 246 245 244 244 243 243 242 241 241 240 240 240 240 240 240 240
318 317 316 315 314 313 312 310 307 304 302 302 303 305 307 309 309 309 308 307 305 304 303 302 301 300 299 298 298 297 297 296 296 295 295 295 294 292 290 288 285 282 280 277 275 273 271 271 270 269 268 266 264 262 260 259 258 257 255 254 253 252 251 250 249 249 248 247 246 245 245 244 243 243 244 243 243 242 241 241 240 239 238 238 238
318 318 317 316 314 313 312 310 306 303 302 301 303 305 308 310 310 309 309 308 307 306 305 303 302 302 301 300 300 300 299 298 297 297 296 296 296 294 293 292 289 287 284 281 278 275 273 271 270 269 268 266 264 262 261 259 258 257 256 254 253 252 251 251 250 249 248 248 247 246 245 244 243 243 243 244 243 243 242 242 241 241 239 238 237
319 319 318 316 315 313 312 309 306 303 301 300 302 305 308 310 311 310 310 310 309 308 307 306 305 305 305 304 304 303 302 301 300 299 298 298 297 296 296 294 293 290 287 284 281 277 275 273 271 269 268 266 264 262 260 259 258 257 256 255 254 253 252 251 250 249 248 248 247 246 245 245 244 242 242 243 243 243 242 242 242 242 241 240 238
320 319 318 316 315 313 311 308 305 302 300 300 301 305 308 310 311 312 313 313 312 311 310 310 309 309 309 308 307 307 305 303 302 301 301 300 300 299 299 297 295 293 290 287 283 280 277 275 272 270 268 265 264 262 260 258 257 256 255 254 254 253 252 251 250 249 249 248 247 246 245 244 244 242 241 242 242 242 242 242 242 242 242 241 240
321 319 318 317 315 313 311 308 305 302 300 299 300 304 308 310 311 313 314 315 315 315 314 313 312 312 311 310 309 309 307 306 305 305 304 304 304 303 303 301 299 296 293 290 286 283 280 277 274 271 269 266 264 262 260 258 256 255 254 253 253 252 252 251 250 249 249 248 248 246 245 244 243 242 242 242 242 242 242 242 242 242 242 241 241
321 320 319 317 315 313 311 308 304 301 299 298 299 303 307 309 311 313 315 316 318 318 317 316 315 314 312 311 310 310 309 308 308 308 308 308 308 308 307 305 302 300 296 293 289 285 282 279 276 273 270 268 265 262 260 259 257 255 254 252 251 251 250 250 250 249 248 248 247 246 245 243 242 241 241 241 241 242 241 241 241 241 242 241 241
322 321 320 318 316 313 310 307 304 301 298 297 298 302 306 308 310 313 315 317 319 320 319 318 317 316 314 313 312 312 311 311 310 311 311 311 311 311 310 308 306 303 299 295 291 288 285 282 279 276 272 269 265 262 260 259 258 257 255 253 251 250 249 249 248 248 248 248 247 247 246 245 243 242 241 241 242 242 242 241 241 241 242 241 241
323 322 320 318 316 313 310 307 304 300 297 295 297 301 304 307 309 312 315 317 319 321 321 320 320 319 317 315 314 313 313 313 313 313 314 314 315 315 314 312 310 306 302 298 295 292 289 285 281 277 272 268 265 263 261 260 259 258 256 254 252 250 249 249 249 248 248 248 248 247 247 246 245 244 243 242 242 242 243 243 241 241 241 241 241
324 323 321 318 315 312 309 306 303 300 296 294 296 300 303 305 308 311 314 316 319 321 322 322 322 322 320 317 316 315 315 315 315 315 316 317 317 318 317 315 313 309 306 302 299 296 291 285 279 275 272 268 266 263 261 260 259 258 257 255 254 253 252 250 248 247 247 247 247 247 247 247 246 245 244 243 242 242 243 243 242 241 241 240 240
324 323 321 318 315 312 309 307 304 300 296 294 295 298 302 304 307 310 313 316 318 321 323 323 324 324 322 320 318 317 316 316 317 317 318 319 320 320 320 318 316 313 310 307 303 297 288 282 278 275 272 269 267 264 262 260 259 258 257 257 257 255 252 250 248 248 247 247 247 247 247 247 247 246 245 244 243 243 243 243 243 242 241 240 239
325 323 321 319 316 312 310 308 305 300 296 294 294 297 301 304 307 309 312 314 318 321 323 324 325 325 324 322 320 319 318 318 318 318 319 320 322 322 322 321 319 316 314 311 306 298 290 285 281 277 273 270 267 265 263 261 260 260 261 261 259 257 255 254 253 251 250 249 248 247 247 247 247 247 246 245 245 244 244 244 244 244 243 241 240
326 324 322 320 316 313 311 309 306 301 296 294 294 297 300 303 306 308 310 313 316 319 322 323 325 326 326 325 323 320 319 319 319 319 320 321 323 324 324 323 321 318 317 315 310 303 296 290 284 279 275 272 269 266 264 263 263 263 263 262 260 259 258 257 255 252 250 249 247 246 244 244 245 245 245 246 245 245 245 245 244 244 243 242 241
326 325 323 320 318 315 312 310 307 302 297 294 295 297 299 302 305 307 309 312 315 318 321 323 325 326 327 326 324 321 320 320 319 319 321 322 324 325 325 324 322 320 319 317 313 308 301 295 289 283 278 273 269 265 263 262 262 262 262 261 261 260 258 256 254 252 249 247 245 244 242 241 241 241 241 242 243 244 244 244 244 244 243 242 242
327 325 323 321 319 316 314 312 309 304 298 295 295 296 298 301 304 306 308 311 314 317 320 321 324 326 327 327 325 322 321 320 320 320 321 323 325 326 326 325 323 321 320 319 316 311 305 299 293 286 278 272 267 263 261 260 260 261 261 261 261 260 258 256 255 253 251 249 247 245 243 242 241 240 239 238 239 240 242 243 244 244 244 243 242
328 326 324 323 320 317 316 314 311 306 300 296 295 296 298 301 303 305 307 310 313 316 318 320 322 325 327 327 325 323 322 321 320 320 321 323 325 327 327 326 324 323 322 321 319 315 309 303 296 287 279 272 268 264 260 258 258 258 259 259 259 258 257 256 255 254 252 250 249 246 244 242 241 241 239 238 237 238 239 241 242 243 243 243 242
329 327 325 323 321 318 317 315 312 308 302 297 295 296 298 301 304 305 307 309 311 314 316 318 321 324 327 327 326 325 324 322 321 321 321 323 326 327 328 327 326 324 324 324 322 319 312 304 297 291 284 276 269 264 259 256 254 255 255 256 256 256 256 256 255 255 253 251 249 247 244 242 240 239 238 237 236 237 238 239 239 240 241 242 242
330 328 326 324 322 320 318 316 313 310 305 299 297 296 298 301 304 306 307 308 310 313 315 318 321 324 327 328 327 326 325 323 321 321 321 323 326 327 328 327 326 326 325 325 324 320 312 305 300 297 292 281 270 263 258 254 252 252 253 255 255 255 255 255 255 254 252 250 248 246 244 242 240 239 239 237 236 235 236 238 238 238 240 241 241
330 328 327 325 323 321 319 317 315 312 308 302 299 298 299 302 305 307 308 308 310 313 315 318 321 324 327 327 326 326 325 323 321 320 321 323 325 327 327 327 327 327 327 326 324 318 309 303 301 300 296 287 275 265 258 253 251 250 251 253 255 256 255 254 254 252 251 249 248 246 245 244 243 241 240 238 236 235 236 237 237 237 238 239 240
331 329 328 327 325 323 321 319 317 315 310 306 302 300 300 302 305 307 309 309 311 313 316 319 321 324 326 327 326 326 325 324 322 321 322 324 326 328 328 328 329 329 329 328 324 316 306 300 298 297 294 289 280 269 260 254 250 250 250 251 253 255 255 254 252 250 250 249 247 247 245 245 244 243 241 239 237 236 236 237 236 236 237 238 239
332 330 329 328 327 325 323 321 318 316 313 308 305 303 302 303 305 308 310 312 313 315 317 319 322 324 326 327 327 327 326 325 324 323 324 326 328 329 328 328 329 330 330 329 325 318 309 301 297 294 292 288 280 272 264 257 252 249 249 250 251 253 253 253 251 250 249 249 247 246 245 244 244 243 242 239 237 236 236 236 235 235 236 237 237
333 331 330 329 328 326 324 322 319 317 314 310 307 305 305 305 307 309 312 314 315 316 317 319 322 324 325 326 327 326 326 325 324 324 325 326 328 329 328 328 329 330 331 329 326 321 313 303 296 293 291 286 279 272 266 260 255 251 249 248 249 250 251 251 250 249 249 249 248 246 245 243 242 241 239 237 235 234 234 234 233 234 235 235 235
333 332 330 330 329 327 325 323 321 318 315 311 308 307 307 309 310 312 313 315 316 317 318 319 321 323 325 326 326 326 325 325 325 325 325 327 329 329 328 328 328 330 330 329 327 323 316 305 297 293 290 284 278 272 267 263 259 254 251 249 249 249 249 249 248 248 248 248 247 246 245 242 240 239 237 235 233 233 233 232 231 231 231 230 229
333 332 331 330 330 328 326 324 322 320 316 313 311 310 311 312 313 315 316 317 317 317 317 319 321 323 324 326 326 326 325 325 325 325 326 327 329 330 329 328 328 329 330 329 328 324 318 308 298 293 289 283 277 271 267 264 261 257 254 251 249 248 247 246 245 245 246 246 246 245 244 242 240 239 237 235 233 231 231 230 228 227 226 224 221
333 332 331 331 330 329 327 325 323 321 318 316 314 314 314 314 316 317 318 319 319 319 318 319 320 322 324 325 326 325 324 324 323 324 324 326 329 330 330 328 328 328 329 329 328 326 320 310 299 292 287 283 276 270 266 263 261 258 255 252 249 246 244 243 242 243 244 244 243 243 243 242 240 238 236 233 230 228 227 226 224 223 221 219 215
333 332 331 331 330 329 328 326 324 322 320 318 317 317 317 317 318 319 319 320 321 321 320 320 321 323 324 325 325 324 324 323 322 323 323 325 327 329 329 328 328 328 328 328 328 326 322 314 302 291 285 280 274 269 264 261 260 258 255 251 247 244 242 241 242 242 242 242 241 240 239 238 236 234 232 229 226 223 221 221 219 217 215 214 211
333 332 331 331 330 329 328 326 325 323 322 321 320 320 320 319 320 320 321 321 322 322 321 322 322 323 324 324 324 324 324 323 322 322 323 323 325 327 328 328 327 327 327 327 327 326 323 317 306 294 285 278 271 266 262 259 258 257 254 250 245 243 241 241 242 242 241 240 238 236 234 232 230 228 226 223 220 217 215 214 213 211 209 208 207
333 332 331 331 330 329 327 326 325 324 324 323 322 322 321 321 321 322 322 322 322 322 322 323 323 324 324 324 324 324 324 323 322 322 322 323 324 325 326 327 327 326 326 326 326 325 323 318 309 297 286 278 271 264 260 257 256 255 252 248 244 242 241 241 242 242 240 237 234 230 228 226 223 221 219 217 214 211 209 207 206 205 203 201 201
333 332 331 331 330 328 327 326 326 325 324 323 323 323 322 323 323 323 323 323 323 323 323 324 324 324 324 324 324 324 324 323 322 322 322 322 322 323 324 325 326 325 325 325 325 324 323 319 310 298 287 279 271 263 258 255 254 252 249 245 242 241 241 241 240 239 237 232 228 225 222 219 216 213 212 210 207 205 203 202 201 200 199 197 196
333 332 331 330 329 328 327 327 326 325 324 324 323 323 324 324 324 324 324 324 324 324 324 324 324 324 324 324 324 325 324 324 323 322 321 321 321 321 322 323 324 324 324 323 323 323 322 319 312 299 286 278 271 263 256 254 252 250 246 242 240 240 240 240 238 236 233 228 223 219 216 212 208 207 205 204 202 200 199 198 197 197 196 195 193
334 332 331 330 329 328 327 327 326 325 325 325 324 324 324 324 325 325 324 324 325 325 325 325 325 325 325 324 324 325 325 325 324 322 321 320 320 320 320 321 322 322 322 322 322 321 320 318 314 302 286 275 269 264 256 251 250 248 243 239 238 238 238 238 236 232 228 223 217 213 209 205 202 202 201 199 198 197 196 195 195 194 194 193 193
333 332 331 330 329 328 327 327 326 325 325 325 325 325 325 325 325 325 325 325 325 325 325 325 326 325 325 325 325 325 326 326 325 323 322 321 320 319 319 319 319 320 320 320 320 319 318 316 313 305 288 272 265 262 256 250 247 245 240 236 235 235 236 235 233 228 224 218 213 209 204 200 199 198 198 197 196 195 195 194 194 193 193 194 193
333 332 331 330 329 328 327 327 327 326 326 326 325 325 326 326 326 326 326 326 326 326 326 326 326 326 325 325 326 326 326 326 325 324 322 321 319 318 318 318 318 318 318 317 317 317 316 314 311 305 290 272 261 257 254 249 244 242 238 233 232 233 233 232 229 225 219 214 210 206 200 197 196 196 196 196 196 195 195 194 193 193 193 193 193
333 332 331 330 329 328 327 327 327 326 326 326 326 326 326 327 327 327 327 327 327 327 327 327 327 326 326 326 326 327 327 326 325 324 322 320 319 318 317 317 317 316 316 315 315 315 314 311 307 303 292 273 258 252 250 246 242 238 235 231 229 230 231 229 225 220 215 211 207 203 198 195 194 195 195 195 196 195 194 193 192 192 192 192 192
333 332 331 330 329 328 327 327 327 327 327 327 327 327 327 327 328 328 328 328 328 328 328 328 327 327 327 327 327 327 327 326 324 323 322 320 319 317 316 316 315 315 314 313 313 312 311 308 303 299 290 273 255 247 245 243 239 235 232 228 226 227 228 225 221 216 211 208 205 201 196 193 193 193 194 194 194 192 191 190 190 190 190 190 191
333 331 330 330 329 328 327 327 327 327 328 328 328 328 328 328 328 328 328 328 329 329 328 328 328 329 329 329 328 327 327 326 324 323 322 320 319 317 316 315 314 313 312 312 310 309 308 304 299 293 286 272 253 242 239 238 236 232 229 225 223 224 224 221 216 212 208 205 203 200 195 192 191 192 192 190 190 189 188 188 189 188 188 188 189
332 331 330 329 328 328 328 328 328 328 328 328 329 329 329 329 329 329 329 329 329 329 329 330 330 330 330 330 329 328 327 326 324 323 322 320 319 317 316 315 314 312 311 310 309 307 304 300 294 287 280 268 250 238 233 233 232 230 226 223 220 220 220 216 212 208 205 203 201 199 195 191 190 190 189 187 187 187 187 188 187 186 184 185 186
332 331 330 329 329 329 329 329 329 329 329 329 329 330 330 330 330 330 330 330 330 330 331 331 332 332 331 330 329 328 327 326 325 324 322 321 319 317 316 314 313 312 311 309 307 304 300 296 288 280 273 262 246 233 228 227 227 226 223 220 217 216 215 212 208 205 203 201 200 197 194 190 188 187 187 185 185 186 187 186 185 183 182 183 185
331 331 330 330 329 329 329 329 329 330 330 330 331 331 331 331 331 331 331 331 331 332 332 333 333 333 332 331 330 329 327 326 325 324 323 321 320 318 316 315 313 312 310 308 305 301 296 290 282 273 265 255 241 229 222 221 222 222 220 217 214 212 211 208 205 202 201 200 198 196 193 189 186 185 185 185 185 186 186 185 183 181 181 183 184
331 331 331 330 330 330 330 330 331 331 331 331 332 332 332 332 332 332 332 333 333 334 334 335 335 334 333 332 331 329 328 327 326 324 323 322 320 319 317 316 314 312 310 307 303 298 292 285 275 265 256 247 235 224 218 216 217 218 217 214 211 209 207 205 202 200 200 199 197 195 192 188 185 184 184 185 186 186 185 184 183 181 181 182 184
332 332 331 331 331 331 331 332 332 332 332 332 333 333 333 333 333 334 334 334 335 336 336 337 336 335 334 333 331 330 329 328 327 325 324 323 321 320 318 316 314 312 309 306 302 296 288 280 268 257 248 239 228 219 213 211 212 213 213 211 208 206 204 202 199 198 198 197 196 193 191 188 185 184 184 185 186 186 185 184 183 182 182 183 184
Height
5402 5396 5390 5384 5380 5375 5371 5366 5361 5357 5353 5348 5344 5339 5334 5330 5327 5324 5321 5318 5315 5312 5309 5308 5306 5304 5303 5301 5299 5298 5297 5296 5294 5294 5294 5294 5293 5293 5293 5293 5294 5296 5297 5298 5299 5299 5301 5303 5305 5306 5307 5309 5312 5314 5316 5318 5320 5323 5325 5328 5331 5333 5336 5339 5347 5364 5371 5369 5374 5380 5381 5383 5387 5391 5395 5398 5402 5405 5408 5413 5418 5422 5426 5431 5435
5392 5386 5380 5374 5369 5365 5360 5355 5351 5347 5342 5337 5332 5327 5322 5318 5315 5312 5309 5305 5302 5299 5297 5295 5293 5291 5289 5288 5286 5284 5283 5282 5281 5280 5280 5279 5279 5279 5279 5279 5280 5281 5282 5284 5284 5285 5287 5289 5291 5292 5292 5294 5297 5298 5300 5302 5303 5306 5309 5310 5314 5317 5318 5321 5328 5342 5353 5355 5357 5363 5366 5367 5373 5378 5380 5384 5389 5391 5394 5400 5404 5408 5414 5418 5422
5383 5377 5371 5365 5359 5354 5349 5344 5340 5336 5331 5326 5321 5316 5311 5307 5303 5300 5297 5294 5291 5288 5285 5283 5281 5279 5277 5275 5273 5271 5270 5269 5268 5267 5266 5265 5265 5264 5264 5264 5266 5267 5268 5269 5270 5271 5272 5275 5277 5277 5277 5280 5283 5283 5285 5286 5287 5290 5293 5294 5297 5301 5302 5304 5310 5320 5333 5339 5342 5347 5350 5351 5358 5364 5365 5369 5375 5377 5381 5386 5390 5395 5400 5404 5409
5373 5368 5362 5356 5349 5344 5339 5334 5329 5324 5319 5314 5310 5306 5301 5297 5293 5290 5287 5284 5281 5278 5275 5273 5270 5268 5266 5263 5261 5259 5257 5256 5255 5253 5252 5251 5251 5251 5250 5250 5251 5252 5253 5255 5256 5256 5258 5260 5262 5262 5263 5265 5268 5269 5269 5271 5272 5273 5277 5279 5280 5284 5286 5288 5293 5300 5310 5321 5327 5331 5334 5336 5342 5348 5350 5354 5359 5362 5366 5372 5375 5380 5385 5389 5395
5363 5358 5352 5346 5340 5334 5328 5324 5319 5314 5308 5303 5299 5295 5291 5287 5284 5280 5277 5274 5272 5269 5266 5263 5261 5258 5256 5253 5251 5249 5247 5245 5243 5241 5240 5238 5238 5238 5237 5237 5237 5237 5239 5240 5241 5241 5243 5245 5247 5247 5248 5250 5252 5254 5254 5255 5256 5258 5261 5264 5265 5268 5270 5272 5276 5282 5289 5300 5309 5314 5317 5320 5325 5331 5335 5338 5343 5346 5351 5357 5361 5366 5371 5374 5380
5354 5348 5342 5336 5330 5324 5319 5314 5309 5304 5299 5294 5290 5286 5282 5278 5275 5272 5269 5266 5263 5260 5257 5255 5252 5249 5247 5244 5242 5239 5237 5235 5233 5231 5229 5227 5226 5226 5225 5225 5224 5225 5226 5226 5226 5227 5228 5230 5232 5231 5232 5234 5236 5238 5238 5239 5241 5243 5246 5248 5249 5251 5254 5257 5260 5264 5270 5280 5289 5296 5300 5304 5308 5315 5319 5320 5325 5331 5336 5341 5346 5351 5355 5359 5364
5345 5339 5332 5326 5320 5315 5309 5304 5300 5295 5290 5286 5282 5278 5274 5271 5267 5264 5261 5258 5255 5252 5249 5246 5243 5240 5238 5235 5233 5230 5228 5225 5223 5221 5219 5217 5216 5215 5214 5213 5213 5213 5213 5213 5213 5214 5215 5215 5216 5216 5216 5218 5220 5221 5222 5223 5225 5227 5230 5232 5234 5235 5239 5242 5244 5247 5253 5261 5270 5277 5283 5286 5290 5297 5302 5303 5308 5316 5321 5324 5329 5335 5339 5343 5349
5336 5330 5323 5317 5311 5305 5300 5295 5291 5286 5282 5278 5274 5270 5267 5263 5260 5256 5253 5250 5247 5244 5241 5239 5236 5233 5230 5227 5224 5222 5219 5216 5213 5211 5209 5207 5205 5204 5203 5202 5202 5203 5202 5202 5202 5202 5202 5202 5202 5202 5201 5202 5203 5204 5206 5207 5208 5211 5215 5216 5217 5219 5223 5226 5229 5232 5237 5243 5251 5259 5264 5268 5273 5280 5285 5287 5291 5299 5302 5304 5311 5319 5323 5327 5335
5327 5321 5315 5308 5302 5296 5291 5286 5282 5277 5274 5270 5267 5263 5259 5256 5252 5249 5246 5243 5240 5237 5234 5231 5228 5225 5222 5219 5216 5213 5210 5207 5204 5201 5199 5197 5195 5193 5192 5192 5192 5192 5192 5191 5191 5190 5189 5189 5188 5188 5187 5186 5188 5188 5189 5190 5191 5195 5199 5199 5200 5204 5207 5210 5213 5217 5221 5227 5235 5241 5244 5250 5257 5263 5267 5271 5275 5281 5283 5285 5295 5304 5307 5311 5319
5319 5313 5306 5299 5293 5288 5283 5278 5274 5269 5266 5263 5259 5256 5253 5249 5245 5242 5239 5236 5233 5230 5227 5224 5221 5218 5215 5212 5209 5206 5202 5199 5195 5192 5189 5186 5184 5183 5182 5181 5181 5181 5180 5180 5179 5178 5177 5175 5174 5174 5172 5172 5172 5172 5173 5174 5175 5178 5181 5182 5184 5187 5190 5193 5198 5202 5206 5210 5218 5223 5226 5234 5242 5246 5249 5255 5258 5262 5266 5270 5278 5286 5289 5294 5303
5309 5303 5297 5291 5284 5279 5275 5270 5266 5262 5259 5256 5253 5249 5246 5242 5239 5235 5232 5229 5226 5223 5220 5217 5214 5211 5208 5205 5202 5198 5195 5191 5187 5184 5181 5177 5174 5172 5171 5171 5170 5169 5169 5168 5168 5166 5164 5162 5161 5160 5159 5158 5157 5157 5158 5159 5159 5161 5163 5166 5167 5170 5173 5177 5181 5186 5189 5194 5201 5206 5209 5218 5227 5230 5233 5239 5242 5245 5251 5255 5259 5266 5271 5276 5286
5301 5295 5288 5282 5276 5271 5267 5263 5259 5256 5252 5249 5246 5243 5240 5236 5232 5229 5226 5223 5219 5216 5213 5210 5207 5203 5201 5198 5195 5191 5187 5183 5179 5176 5172 5169 5165 5161 5160 5159 5158 5157 5157 5156 5155 5154 5151 5150 5148 5146 5145 5144 5143 5143 5143 5144 5144 5145 5147 5149 5151 5153 5157 5160 5165 5170 5173 5177 5184 5189 5194 5203 5212 5217 5220 5224 5226 5230 5236 5239 5242 5248 5253 5258 5269
5293 5286 5280 5273 5268 5263 5259 5256 5252 5249 5246 5243 5240 5236 5233 5230 5226 5223 5220 5217 5213 5210 5206 5203 5200 5196 5193 5191 5188 5184 5179 5175 5171 5167 5164 5161 5156 5152 5150 5148 5147 5146 5144 5143 5141 5140 5138 5137 5135 5134 5132 5130 5129 5129 5129 5129 5129 5129 5130 5132 5135 5138 5141 5144 5149 5153 5157 5161 5167 5174 5182 5189 5197 5205 5208 5207 5210 5214 5219 5223 5226 5230 5236 5243 5252
5284 5278 5272 5265 5260 5255 5251 5248 5245 5242 5239 5236 5233 5230 5227 5224 5220 5217 5214 5211 5207 5204 5200 5197 5193 5189 5186 5183 5180 5176 5171 5166 5163 5159 5155 5152 5147 5143 5140 5138 5136 5134 5132 5130 5128 5126 5124 5123 5122 5121 5119 5117 5116 5115 5115 5115 5115 5114 5115 5117 5120 5123 5126 5129 5133 5137 5142 5146 5151 5160 5169 5174 5181 5190 5192 5190 5193 5199 5204 5207 5210 5214 5220 5228 5235
5276 5270 5264 5257 5252 5247 5244 5240 5237 5235 5232 5230 5227 5224 5221 5218 5214 5211 5208 5205 5201 5197 5194 5190 5186 5182 5179 5175 5172 5169 5163 5158 5154 5150 5146 5143 5138 5134 5131 5128 5125 5123 5120 5117 5114 5112 5111 5109 5107 5107 5106 5105 5104 5103 5101 5101 5100 5101 5102 5104 5106 5109 5111 5115 5119 5123 5126 5130 5135 5144 5153 5159 5164 5172 5175 5175 5178 5184 5188 5191 5195 5199 5205 5212 5219
5268 5261 5255 5250 5244 5240 5236 5233 5230 5228 5225 5223 5221 5218 5215 5212 5208 5205 5202 5199 5195 5191 5187 5184 5180 5176 5172 5168 5165 5162 5156 5150 5146 5142 5137 5133 5128 5124 5121 5117 5114 5111 5108 5105 5101 5099 5097 5095 5094 5093 5093 5093 5093 5090 5088 5086 5086 5088 5090 5092 5094 5095 5098 5102 5105 5108 5112 5116 5120 5128 5136 5142 5148 5154 5160 5161 5163 5169 5172 5175 5180 5185 5190 5198 5205
5260 5254 5248 5242 5237 5232 5229 5226 5223 5221 5219 5217 5214 5212 5209 5206 5203 5199 5196 5193 5189 5185 5182 5178 5174 5170 5166 5162 5158 5155 5150 5143 5138 5134 5129 5124 5119 5115 5111 5107 5103 5100 5097 5093 5089 5086 5084 5082 5081 5081 5081 5082 5081 5078 5075 5073 5073 5076 5078 5080 5082 5083 5086 5090 5092 5094 5098 5101 5106 5111 5117 5124 5130 5136 5143 5146 5148 5153 5155 5159 5168 5174 5177 5183 5192
5252 5246 5240 5234 5230 5225 5222 5219 5216 5214 5212 5210 5208 5206 5203 5200 5197 5194 5190 5187 5184 5180 5176 5172 5169 5164 5160 5155 5151 5147 5143 5137 5131 5126 5121 5115 5109 5105 5101 5097 5093 5090 5086 5083 5079 5075 5073 5071 5069 5069 5069 5069 5067 5065 5064 5062 5062 5064 5065 5067 5069 5071 5075 5078 5079 5081 5085 5088 5092 5097 5102 5108 5114 5121 5128 5134 5137 5140 5141 5148 5159 5162 5162 5170 5183
5245 5239 5233 5227 5223 5219 5215 5212 5209 5207 5205 5203 5202 5200 5197 5194 5191 5188 5185 5182 5179 5175 5171 5167 5163 5158 5154 5149 5144 5139 5136 5130 5124 5119 5113 5107 5101 5095 5091 5087 5084 5080 5076 5073 5070 5066 5064 5061 5059 5057 5056 5056 5055 5054 5053 5052 5051 5053 5054 5054 5056 5060 5065 5068 5069 5071 5073 5077 5081 5084 5088 5095 5101 5108 5116 5122 5126 5128 5129 5136 5146 5148 5151 5162 5173
5238 5232 5226 5221 5216 5212 5208 5206 5203 5201 5199 5197 5195 5193 5191 5188 5185 5182 5179 5176 5173 5169 5165 5161 5157 5153 5148 5143 5138 5132 5128 5123 5117 5111 5105 5099 5093 5087 5082 5078 5074 5071 5067 5065 5062 5059 5055 5051 5049 5047 5046 5045 5044 5044 5044 5043 5042 5042 5042 5042 5046 5053 5056 5056 5056 5059 5062 5066 5069 5072 5077 5084 5091 5097 5103 5108 5112 5115 5117 5122 5129 5134 5141 5151 5159
5231 5225 5219 5214 5209 5205 5202 5199 5197 5194 5192 5191 5189 5187 5185 5182 5180 5177 5173 5170 5167 5164 5159 5155 5151 5147 5142 5137 5132 5126 5120 5116 5110 5104 5098 5091 5085 5078 5073 5069 5065 5061 5058 5056 5054 5050 5046 5043 5041 5039 5038 5036 5035 5034 5034 5034 5032 5031 5031 5034 5039 5042 5041 5040 5044 5050 5054 5057 5060 5064 5068 5074 5079 5084 5090 5094 5099 5103 5106 5109 5114 5121 5129 5137 5144
5224 5218 5212 5207 5203 5199 5196 5193 5190 5188 5186 5184 5183 5181 5178 5176 5173 5170 5167 5164 5161 5158 5154 5149 5145 5141 5136 5130 5125 5119 5113 5108 5103 5097 5091 5085 5078 5071 5065 5060 5056 5052 5049 5047 5045 5041 5038 5036 5034 5032 5030 5029 5028 5026 5026 5025 5023 5023 5026 5028 5029 5029 5028 5032 5039 5044 5046 5048 5052 5057 5061 5065 5068 5073 5078 5083 5088 5092 5095 5098 5102 5108 5115 5123 5129
5217 5211 5206 5201 5197 5193 5190 5187 5184 5182 5180 5178 5177 5175 5172 5170 5167 5165 5161 5158 5155 5152 5148 5144 5139 5135 5131 5125 5119 5113 5107 5101 5096 5090 5085 5079 5072 5065 5059 5053 5048 5044 5040 5038 5036 5033 5031 5029 5027 5025 5024 5022 5021 5020 5019 5017 5017 5018 5020 5020 5020 5020 5022 5026 5030 5033 5035 5039 5043 5047 5052 5056 5059 5063 5067 5072 5076 5080 5082 5085 5089 5094 5101 5108 5113
5210 5205 5199 5195 5191 5188 5184 5181 5179 5176 5174 5172 5170 5169 5166 5164 5162 5159 5155 5152 5149 5146 5142 5138 5134 5130 5125 5120 5114 5108 5102 5096 5090 5084 5079 5074 5067 5060 5054 5048 5042 5037 5033 5030 5027 5025 5024 5022 5021 5019 5017 5016 5015 5013 5012 5012 5012 5012 5012 5012 5013 5015 5016 5018 5020 5023 5026 5030 5033 5037 5042 5045 5049 5053 5057 5062 5065 5067 5069 5072 5077 5082 5088 5095 5100
5204 5199 5193 5189 5185 5182 5179 5176 5173 5170 5168 5166 5164 5163 5161 5158 5156 5153 5150 5146 5143 5140 5136 5132 5128 5124 5120 5115 5110 5103 5097 5090 5084 5078 5073 5067 5061 5055 5049 5043 5037 5032 5027 5024 5020 5018 5017 5015 5014 5013 5011 5009 5008 5007 5007 5007 5006 5006 5007 5007 5007 5009 5010 5011 5013 5015 5018 5022 5026 5030 5034 5037 5040 5044 5048 5051 5054 5057 5059 5063 5067 5072 5077 5082 5087
5199 5193 5188 5184 5180 5176 5174 5171 5168 5165 5162 5160 5158 5157 5155 5153 5150 5147 5144 5140 5137 5134 5130 5127 5123 5119 5114 5110 5104 5099 5092 5085 5079 5073 5067 5062 5056 5049 5043 5037 5031 5026 5022 5018 5014 5012 5010 5009 5007 5006 5004 5003 5002 5002 5002 5002 5001 5001 5001 5001 5002 5003 5004 5005 5007 5009 5013 5016 5019 5022 5027 5030 5033 5036 5039 5042 5045 5048 5052 5055 5058 5062 5065 5070 5075
5194 5188 5183 5179 5175 5172 5169 5166 5162 5160 5157 5154 5153 5151 5149 5146 5144 5141 5138 5134 5132 5128 5125 5121 5117 5113 5109 5104 5099 5093 5087 5080 5074 5068 5062 5057 5051 5045 5038 5031 5025 5020 5016 5012 5008 5005 5003 5002 5000 4999 4998 4998 4997 4996 4996 4996 4996 4997 4996 4996 4996 4997 4998 5000 5002 5004 5007 5010 5013 5016 5019 5022 5025 5027 5031 5033 5037 5041 5044 5046 5049 5053 5057 5059 5064
5188 5183 5178 5174 5171 5167 5164 5161 5157 5155 5152 5149 5147 5145 5143 5141 5138 5135 5131 5128 5126 5123 5119 5115 5111 5106 5102 5098 5093 5088 5082 5075 5068 5063 5057 5052 5047 5041 5035 5028 5022 5016 5011 5006 5002 4999 4997 4995 4993 4993 4992 4992 4991 4991 4991 4991 4992 4992 4991 4991 4991 4992 4993 4995 4997 4999 5002 5004 5006 5009 5012 5014 5017 5021 5023 5026 5030 5034 5036 5038 5041 5046 5048 5050 5054
5183 5178 5173 5170 5166 5163 5159 5156 5152 5150 5147 5144 5142 5140 5137 5135 5132 5130 5126 5122 5119 5116 5113 5109 5105 5101 5097 5092 5087 5083 5078 5072 5064 5058 5052 5047 5042 5037 5031 5025 5019 5013 5008 5002 4998 4995 4991 4989 4987 4987 4986 4986 4986 4985 4985 4986 4986 4987 4987 4986 4987 4988 4989 4991 4993 4994 4996 4998 5000 5003 5006 5008 5011 5014 5017 5020 5024 5027 5029 5031 5034 5038 5040 5042 5046
5179 5173 5169 5165 5161 5158 5154 5151 5148 5145 5142 5139 5137 5135 5132 5129 5126 5123 5121 5117 5113 5109 5106 5102 5097 5094 5091 5087 5081 5077 5072 5067 5060 5054 5047 5041 5036 5030 5024 5018 5013 5009 5004 4999 4995 4991 4988 4985 4983 4982 4981 4981 4981 4980 4980 4981 4981 4982 4982 4982 4983 4983 4984 4986 4988 4989 4991 4993 4995 4998 5000 5003 5005 5007 5010 5014 5017 5020 5021 5024 5027 5031 5033 5035 5039
5174 5169 5165 5161 5157 5153 5150 5146 5143 5140 5137 5134 5132 5130 5128 5125 5120 5117 5114 5111 5107 5102 5098 5094 5089 5085 5081 5078 5073 5069 5064 5059 5054 5048 5042 5036 5031 5024 5018 5011 5007 5003 4999 4995 4991 4987 4983 4981 4979 4978 4977 4976 4976 4976 4976 4976 4977 4977 4977 4978 4978 4979 4980 4981 4983 4984 4986 4988 4990 4993 4995 4997 4999 5001 5004 5007 5010 5013 5015 5018 5021 5024 5027 5030 5033
5169 5165 5160 5157 5153 5149 5145 5142 5139 5136 5133 5130 5127 5125 5123 5121 5118 5113 5108 5104 5100 5095 5091 5088 5083 5078 5073 5069 5065 5061 5056 5052 5047 5042 5037 5031 5027 5021 5014 5007 5002 4998 4994 4990 4986 4982 4979 4976 4975 4973 4972 4971 4971 4971 4971 4972 4972 4972 4973 4973 4974 4974 4976 4977 4978 4980 4981 4983 4985 4988 4990 4992 4994 4996 4998 5001 5004 5007 5009 5012 5015 5018 5021 5024 5027
5164 5160 5156 5153 5149 5145 5141 5138 5135 5132 5129 5126 5123 5121 5118 5116 5114 5111 5106 5100 5095 5090 5085 5081 5077 5073 5068 5062 5057 5052 5048 5044 5040 5035 5031 5026 5022 5017 5011 5004 4998 4994 4990 4985 4981 4977 4974 4971 4970 4969 4968 4967 4967 4967 4967 4967 4967 4968 4968 4969 4969 4970 4971 4972 4974 4975 4977 4979 4981 4983 4984 4987 4989 4991 4993 4996 4998 5001 5004 5007 5010 5012 5015 5018 5021
5160 5155 5152 5148 5145 5141 5137 5134 5130 5127 5124 5122 5119 5116 5114 5111 5108 5106 5103 5098 5093 5087 5081 5075 5071 5067 5063 5057 5051 5045 5040 5035 5031 5027 5023 5020 5016 5012 5006 5001 4995 4990 4985 4981 4977 4973 4969 4967 4965 4964 4963 4962 4962 4962 4962 4963 4963 4964 4964 4965 4965 4966 4967 4969 4970 4971 4973 4974 4976 4978 4980 4982 4984 4986 4988 4991 4993 4996 4998 5001 5004 5007 5010 5013 5016
5156 5151 5147 5143 5140 5137 5133 5129 5126 5123 5120 5117 5114 5112 5109 5106 5103 5100 5097 5093 5090 5086 5080 5073 5067 5061 5057 5052 5047 5041 5035 5030 5025 5020 5016 5013 5009 5006 5001 4996 4991 4986 4981 4977 4973 4969 4966 4963 4960 4959 4958 4958 4958 4958 4958 4958 4959 4959 4960 4961 4961 4962 4963 4965 4966 4968 4969 4970 4972 4974 4975 4977 4980 4982 4984 4986 4989 4991 4994 4997 5000 5003 5006 5010 5013
5152 5147 5143 5139 5136 5132 5129 5125 5122 5119 5116 5113 5110 5107 5104 5101 5098 5095 5091 5087 5084 5080 5076 5070 5064 5057 5051 5046 5042 5037 5031 5026 5021 5016 5012 5008 5004 5001 4997 4992 4987 4982 4977 4973 4969 4965 4962 4959 4956 4955 4954 4953 4953 4954 4954 4954 4955 4955 4956 4957 4957 4958 4959 4961 4962 4964 4965 4966 4968 4970 4971 4973 4976 4978 4980 4982 4985 4988 4991 4994 4997 5000 5004 5007 5011
5147 5143 5139 5135 5132 5128 5124 5121 5118 5115 5112 5109 5106 5103 5100 5096 5093 5089 5086 5082 5078 5074 5070 5065 5060 5054 5047 5041 5036 5031 5026 5020 5015 5010 5006 5002 4999 4995 4992 4988 4983 4979 4974 4969 4965 4961 4957 4954 4952 4951 4950 4949 4949 4949 4950 4950 4950 4951 4952 4953 4954 4954 4956 4957 4958 4960 4961 4963 4964 4966 4968 4970 4972 4974 4977 4979 4982 4985 4988 4991 4994 4998 5001 5005 5008
5143 5139 5135 5131 5128 5124 5121 5117 5114 5111 5108 5104 5101 5098 5095 5091 5088 5084 5080 5076 5072 5068 5064 5059 5054 5049 5043 5037 5031 5026 5021 5015 5009 5004 5000 4996 4993 4989 4985 4982 4978 4974 4970 4966 4961 4957 4953 4950 4947 4946 4945 4945 4945 4945 4945 4946 4946 4947 4948 4949 4950 4951 4952 4953 4954 4956 4957 4959 4961 4962 4964 4967 4969 4971 4974 4976 4979 4982 4985 4989 4992 4996 4999 5003 5006
5139 5135 5131 5127 5124 5120 5117 5114 5110 5107 5104 5100 5097 5094 5090 5087 5083 5079 5075 5071 5067 5063 5058 5053 5048 5043 5038 5032 5027 5022 5016 5010 5004 4999 4995 4990 4987 4983 4979 4976 4972 4969 4965 4962 4958 4954 4950 4946 4943 4941 4940 4940 4940 4941 4941 4942 4942 4943 4944 4945 4946 4947 4948 4949 4951 4952 4954 4956 4957 4959 4961 4964 4966 4968 4971 4974 4977 4980 4983 4986 4990 4994 4997 5001 5004
5136 5131 5127 5123 5120 5116 5113 5110 5106 5103 5100 5096 5093 5089 5086 5082 5079 5075 5070 5066 5062 5057 5052 5047 5042 5036 5031 5026 5021 5017 5012 5006 5000 4995 4990 4985 4981 4977 4974 4970 4966 4963 4959 4956 4953 4949 4946 4943 4940 4937 4936 4935 4935 4936 4937 4937 4938 4939 4940 4941 4942 4943 4945 4946 4947 4949 4951 4953 4955 4957 4959 4961 4963 4966 4969 4972 4975 4978 4981 4984 4988 4992 4995 4999 5003
5132 5128 5124 5120 5116 5113 5109 5106 5102 5099 5096 5092 5089 5085 5081 5078 5074 5070 5065 5061 5057 5052 5047 5041 5036 5030 5025 5020 5015 5010 5006 5001 4996 4990 4985 4981 4976 4972 4968 4965 4961 4957 4953 4950 4948 4944 4941 4938 4936 4933 4931 4931 4931 4931 4932 4933 4934 4935 4936 4937 4939 4940 4941 4942 4944 4945 4947 4950 4952 4954 4956 4959 4961 4964 4967 4970 4973 4976 4979 4983 4986 4990 4994 4997 5001
5128 5124 5120 5116 5112 5109 5105 5102 5098 5095 5091 5088 5084 5080 5077 5073 5069 5065 5061 5056 5051 5047 5042 5036 5031 5025 5019 5014 5009 5003 4999 4994 4989 4984 4980 4975 4971 4967 4963 4959 4956 4952 4948 4945 4942 4939 4936 4933 4931 4929 4927 4926 4926 4926 4928 4929 4930 4931 4932 4934 4935 4936 4938 4939 4940 4942 4944 4947 4949 4952 4954 4956 4959 4962 4965 4968 4971 4974 4977 4981 4984 4988 4992 4996 5000
5124 5120 5116 5112 5108 5105 5101 5098 5094 5091 5087 5083 5080 5076 5072 5068 5064 5060 5055 5051 5046 5041 5036 5030 5025 5019 5013 5007 5002 4997 4992 4987 4983 4978 4973 4968 4964 4960 4957 4953 4950 4946 4942 4939 4936 4934 4931 4928 4926 4924 4922 4921 4921 4922 4923 4924 4926 4927 4928 4930 4931 4933 4934 4935 4937 4939 4942 4944 4947 4949 4952 4954 4957 4960 4963 4966 4969 4972 4976 4979 4983 4987 4990 4994 4998
5120 5116 5112 5108 5105 5101 5098 5094 5091 5087 5083 5080 5076 5071 5067 5063 5059 5054 5050 5045 5040 5035 5030 5024 5019 5014 5008 5002 4996 4991 4986 4981 4976 4972 4967 4962 4957 4953 4950 4947 4943 4940 4936 4933 4930 4928 4925 4922 4920 4918 4917 4916 4916 4917 4918 4920 4921 4923 4924 4926 4927 4929 4930 4932 4934 4936 4939 4942 4944 4947 4949 4952 4955 4958 4961 4964 4967 4971 4974 4978 4981 4985 4989 4993 4997
5116 5112 5108 5105 5101 5098 5094 5090 5087 5084 5080 5076 5072 5067 5063 5058 5054 5049 5045 5040 5035 5030 5024 5019 5013 5008 5002 4997 4991 4986 4980 4975 4970 4965 4961 4956 4951 4947 4943 4939 4936 4933 4929 4926 4923 4921 4919 4916 4914 4912 4911 4911 4911 4912 4913 4915 4917 4918 4920 4922 4923 4925 4927 4929 4931 4933 4936 4939 4942 4945 4947 4950 4953 4956 4960 4963 4966 4969 4973 4976 4980 4984 4988 4992 4996
5112 5108 5105 5101 5098 5094 5091 5087 5083 5080 5076 5072 5068 5064 5059 5054 5049 5045 5040 5034 5029 5024 5019 5013 5007 5002 4996 4990 4985 4980 4974 4969 4964 4959 4954 4949 4944 4940 4936 4932 4928 4925 4922 4919 4916 4913 4912 4910 4907 4906 4905 4905 4906 4906 4908 4910 4912 4914 4916 4918 4920 4922 4924 4926 4928 4930 4933 4936 4939 4942 4945 4948 4951 4955 4958 4961 4965 4968 4971 4975 4978 4982 4986 4990 4994
5108 5105 5101 5098 5094 5091 5087 5083 5079 5076 5072 5068 5063 5059 5055 5050 5045 5040 5035 5029 5024 5018 5013 5007 5001 4996 4990 4984 4978 4973 4968 4962 4957 4952 4947 4942 4937 4932 4928 4924 4920 4917 4914 4910 4908 4905 4903 4902 4900 4899 4899 4899 4900 4901 4903 4905 4908 4910 4912 4914 4916 4918 4920 4922 4925 4928 4931 4934 4937 4940 4943 4946 4949 4953 4957 4960 4963 4967 4970 4973 4977 4981 4985 4989 4993
5105 5101 5098 5094 5091 5087 5084 5080 5076 5072 5068 5064 5059 5055 5050 5046 5041 5036 5030 5025 5019 5013 5007 5001 4996 4990 4984 4978 4972 4966 4961 4955 4950 4945 4940 4935 4930 4925 4920 4916 4912 4908 4905 4901 4899 4896 4895 4894 4893 4892 4892 4893 4894 4896 4898 4900 4903 4905 4908 4910 4912 4915 4917 4919 4922 4925 4928 4931 4934 4938 4941 4944 4948 4951 4955 4959 4962 4965 4969 4972 4976 4980 4984 4988 4992
5102 5098 5094 5091 5087 5084 5080 5076 5072 5068 5064 5060 5056 5051 5046 5041 5036 5031 5025 5020 5014 5008 5002 4996 4990 4984 4978 4972 4966 4960 4954 4948 4943 4937 4932 4927 4922 4917 4912 4907 4902 4898 4895 4892 4889 4887 4886 4885 4885 4885 4885 4887 4888 4890 4892 4895 4898 4901 4903 4906 4908 4911 4913 4916 4919 4922 4925 4929 4932 4936 4939 4942 4946 4950 4954 4957 4961 4964 4968 4972 4976 4980 4983 4987 4991
5098 5095 5091 5088 5084 5081 5077 5073 5069 5065 5060 5056 5052 5047 5042 5037 5032 5026 5021 5015 5009 5003 4996 4990 4984 4978 4971 4965 4959 4953 4947 4941 4935 4929 4924 4919 4913 4908 4903 4897 4892 4888 4885 4882 4880 4878 4878 4877 4878 4878 4879 4880 4882 4885 4887 4890 4894 4897 4900 4902 4905 4908 4910 4913 4916 4919 4923 4926 4930 4934 4937 4941 4944 4948 4952 4956 4959 4963 4967 4971 4975 4979 4983 4986 4990
5095 5091 5088 5084 5081 5077 5073 5069 5065 5061 5057 5052 5048 5043 5038 5033 5027 5022 5016 5010 5004 4998 4991 4985 4978 4972 4965 4958 4952 4945 4939 4933 4927 4921 4915 4910 4904 4899 4893 4888 4883 4879 4876 4874 4872 4871 4870 4870 4871 4871 4873 4875 4877 4880 4883 4886 4889 4893 4896 4899 4901 4904 4907 4910 4913 4917 4920 4924 4928 4932 4935 4939 4942 4946 4950 4954 4958 4962 4966 4970 4974 4978 4982 4985 4989